Regional Weather Roundup
Issued by NWS

Home | Current Version | Previous Version | Graphics & Text | Print | Product List | Glossary On
Versions: 1 2 3 4 5 6 7 8 9 10 11 12 13 14 15 16 17 18 19 20 21 22 23 24 25 26 27 28 29 30 31 32 33 34 35 36 37 38 39 40 41 42 43 44 45 46 47 48 49 50
601
ASUS45 KSLC 181410
RWRUT

UTAH REGIONAL WEATHER ROUNDUP
NATIONAL WEATHER SERVICE SALT LAKE CITY UT
700 AM MST SUN FEB 18 2018

UTZ001>011-023>025-181500-

NORTHERN UTAH

CITY           SKY/WX    TMP DP  RH WIND       PRES   REMARKS
BRIGHAM CITY   CLOUDY    48  18  30 SW14G23   29.58S
HILL AFB       NOT AVBL
LOGAN          LGT RAIN  52  24  33 SW13G43   29.55F
OGDEN          CLOUDY    49  16  26 S17       29.55F
SALT LAKE CITY CLOUDY    53  15  22 S26G40    29.58F
TOOELE VALLEY  CLOUDY    52  18  25 S15G21    29.60S
WENDOVER       CLOUDY    51  17  26 SW14G23   29.58F
HEBER CITY       N/A     45  10  24 SW13G29   29.65F
WEST JORDAN    CLOUDY    46  18  33 SE25G31   29.61F

$$

UTZ011>015-024>027-181500-

CENTRAL/NORTHEAST UTAH

CITY           SKY/WX    TMP DP  RH WIND       PRES   REMARKS
PROVO AIRPORT  CLOUDY    49  14  24 VRB5      29.68F
MOAB/CANYONLAN CLEAR     39  23  52 SE9       29.75F WCI  33
DELTA          PTCLDY    39  14  35 S20G26    29.71F WCI  30
PRICE          PTCLDY    23  16  74 NE5       29.74F WCI  17
RICHFIELD      CLEAR     45  10  24 SW21G30   29.73F
ROOSEVELT      PTCLDY    21  12  68 CALM      29.70F
VERNAL         PTCLDY    24  13  62 W6        29.69F WCI  17

$$

UTZ013>016-019>022-027-181500-

SOUTHERN UTAH

CITY           SKY/WX    TMP DP  RH WIND       PRES   REMARKS
BRYCE CANYON   CLEAR     25  15  66 CALM      29.90F
CEDAR CITY     CLEAR     36  20  52 SW9       29.82F WCI  29
MILFORD        CLEAR     39  17  41 S23       29.79S WCI  28
ST GEORGE      CLOUDY    33  30  88 CALM      29.91F
HANKSVILLE     CLEAR     32  19  59 S7        29.77F WCI  26
KANAB          CLEAR     23  21  93 NE2       29.96F
BLANDING         N/A     27  15  61 NE7       30.00F WCI  19

$$

REGIONAL REPORTS     COLORADO/ARIZONA

CITY           SKY/WX    TMP DP  RH WIND       PRES   REMARKS
CRAIG, CO      PTCLDY    39  15  37 SW13G26   29.66F WCI  31
GRAND JUNCTION CLEAR     28  21  75 E6        29.79F WCI  22
RIFLE, CO      PTCLDY    21  17  84 E5        29.80F WCI  15
MONTROSE, CO   CLEAR     28  16  60 SE13      29.88F WCI  17
CORTEZ, CO     CLEAR     20  15  81 E6        29.96F WCI  12
COLORADO CITY    N/A     28  25  86 CALM      29.95F
PAGE, AZ       CLEAR     34  23  64 SW3       29.90F
GRAND CANYON   PTCLDY    29  29 100 S6        30.00R WCI  23
KINGMAN, AZ    CLEAR     38  27  64 SE8       29.95F WCI  32
FLAGSTAFF, AZ  PTCLDY    33  31  92 SW9       30.01S WCI  25

$$

REGIONAL REPORTS    NEVADA/IDAHO/WYOMING

CITY           SKY/WX    TMP DP  RH WIND       PRES   REMARKS
LAS VEGAS, NV  CLEAR     47  22  37 W5        29.85F
ELY, NY        CLEAR     35  11  36 S14       29.72F WCI  26
ELKO, NV       CLOUDY    45  26  47 W18G26    29.62S
POCATELLO, ID  LGT SNOW  33  32  96 SW25G31   29.59F FOG     WCI  20
BURLEY, ID     LGT SNOW  32  32 100 W7        29.60F VSB 1   WCI  26
FORT BRIDGER,    N/A     40  12  31 W24G35    29.53F WCI  30
EVANSTON, WY   CLOUDY    39  14  36 SW29G41   29.57S WCI  27
ROCK SPRINGS,  PTCLDY    37  12  35 SW21G26   29.53F WCI  26

$$




USA.gov is the U.S. government's official web portal to all federal, state and local government web resources and services.